Location: Brabourne
(51.1333°N, 1.0000°E)
Time: 07:37:30
(UTC+00:00)

FALCON 9 DEB - Pass Details

Date: 20 June 2021
Orbit: 363 x 377 km, 53.0° (Epoch: 31 July)

Event Time Altitude Azimuth Distance (km) Brightness Sun altitude
Rises 00:56:49 0° 281° (WNW) 2,270 6.8 -14.3°
Reaches altitude 10° 00:58:53 10° 285° (WNW) 1,415 5.7 -14.2°
Maximum altitude 01:02:02 64° 7° (N) 433 3.3 -14.1°
Drops below altitude 10° 01:05:10 10° 91° (E) 1,409 5.9 -14.0°
Sets 01:07:13 0° 94° (E) 2,259 6.9 -13.9°
